Find Starlink 31368

NORAD ID: 58970 Int'l Des: 2024-031 Owner: SPXS Country: US Constellation: starlink operational
LEOCIRCULAR

当前视图

正在加载3D地球...

About Starlink 31368

Starlink 31368 (NORAD 58970) is a starlink constellation satellite (v2 mini) launched Feb 15, 2024 by SPXS of US. It operates in LEO, CIRCULAR orbit with a mass of 730.00 kg.

关于 Starlink 31368

正在加载描述...

即将过境

Passes for default location (London). Set your location on the main map for personalized predictions.

高度历史

Loading altitude history...

两行轨道根数

1 58970U 24031F 26171.34302387 .00000550 00000-0 30683-4 0 9990
2 58970 53.1591 179.6203 0001089 83.5377 276.5747 15.30193662132251
Epoch: Jun 20, 2026 • Age: 10 hours

当前状态

高度 479.2 km
速度 7.63 km/s
星下点 -13.92°S, 178.15°W
发射日期 Feb 15, 2024
运行时间 2.3 years
类型 internet

技术详情

分类 Payload
质量 730.00 kg
干质量 700.00 kg
总质量 730.00 kg
长度 0.30 m
直径 4.10 m
跨度 29.00 m
形状 Box + pan
制造商 SPXS
平台类型 Starlink V2M
阶段状态 In Orbit
所有者/国家 SPXS/US

Most Searched